This is the latest recevied weather packets stored in our database for station/object KK7RJD. If no packets are shown the sender has not sent any weather packets the latest 10 day(s).
| Time | Temp. | Humidity | Pressure | Rain* | Wind** | Luminosity | Snow |
|---|---|---|---|---|---|---|---|
| 1777423496 | 12.78° C | 31% | 1016.6 hPa | 0 mm | - | 132 W/m² | - |
| 1777423191 | 12.22° C | 32% | 1016.6 hPa | 0 mm | - | 113 W/m² | - |
| 1777422884 | 12.22° C | 30% | 1016.5 hPa | 0 mm | - | 118 W/m² | - |
| 1777422581 | 12.22° C | 31% | 1016.5 hPa | 0 mm | - | 137 W/m² | - |
| 1777422277 | 12.22° C | 31% | 1016.4 hPa | 0 mm | - | 119 W/m² | - |
| 1777421977 | 12.22° C | 29% | 1016.4 hPa | 0 mm | - | 114 W/m² | - |
| 1777421672 | 12.78° C | 30% | 1016.5 hPa | 0 mm | - | 215 W/m² | - |
| 1777421367 | 13.33° C | 27% | 1016.2 hPa | 0 mm | - | 220 W/m² | - |
| 1777421064 | 12.78° C | 27% | 1016.5 hPa | 0 mm | - | 225 W/m² | - |
| 1777420760 | 13.33° C | 27% | 1016.2 hPa | 0 mm | - | 246 W/m² | - |
| 1777420456 | 13.33° C | 28% | 1016.2 hPa | 0 mm | - | 262 W/m² | - |
| 1777420153 | 12.78° C | 28% | 1016.2 hPa | 0 mm | - | 296 W/m² | - |
| 1777419849 | 12.22° C | 28% | 1016.1 hPa | 0 mm | - | 359 W/m² | - |
| 1777419546 | 12.22° C | 28% | 1016.4 hPa | 0 mm | - | 182 W/m² | - |
| 1777419245 | 12.78° C | 27% | 1016.6 hPa | 0 mm | - | 147 W/m² | - |
| 1777418942 | 13.33° C | 27% | 1016.4 hPa | 0 mm | - | 241 W/m² | - |
| 1777418637 | 12.78° C | 27% | 1016.4 hPa | 0 mm | - | 368 W/m² | - |
| 1777418334 | 12.78° C | 29% | 1016.5 hPa | 0 mm | - | 380 W/m² | - |
| 1777418030 | 13.33° C | 26% | 1016.1 hPa | 0 mm | - | 385 W/m² | - |
| 1777417725 | 13.33° C | 27% | 1016 hPa | 0 mm | - | 421 W/m² | - |
| 1777417421 | 13.33° C | 27% | 1016 hPa | 0 mm | - | 446 W/m² | - |
| 1777417118 | 13.89° C | 27% | 1016 hPa | 0 mm | - | 464 W/m² | - |
| 1777416813 | 13.89° C | 27% | 1016.2 hPa | 0 mm | - | 487 W/m² | - |
| 1777416509 | 13.89° C | 27% | 1016.2 hPa | 0 mm | - | 518 W/m² | - |
| 1777416206 | 12.78° C | 29% | 1016.4 hPa | 0 mm | - | 624 W/m² | - |
* Rain latest hour (hover to see other rain measurements)
** Current wind speed in m/s (hover to see current wind gust speed)